Weather History for Palma de Mallorca, Spain

Change the Weather History Date:

Saturday, November 22, 2014

  Actual Average Record
Temperature  
Mean Temperature 63 °F -  
Max Temperature 73 °F 60 °F 73 °F (2014)
Min Temperature 53 °F 42 °F 33 °F (1998)
Degree Days  
Heating Degree Days 2    
Growing Degree Days 13 (Base 50)    
Moisture  
Dew Point 57 °F    
Average Humidity 86    
Maximum Humidity 100    
Minimum Humidity 56    
Precipitation  
Precipitation 0.00 in 0.06 in - ()
Sea Level Pressure  
Sea Level Pressure 30.05 in    
Wind  
Wind Speed 1 mph ()    
Max Wind Speed 10 mph    
Max Gust Speed -    
Visibility 7.4 miles    
Events      
Averages and records for this station are not official NWS values.
T = Trace of Precipitation, MM = Missing Value Source: Averaged Metar Reports

Daily Weather History Graph

Daily Weather History Graph

Search for Another Location

Airport:

Trip Planner

Search our weather history database for the weather conditions in past years. The results will help you decide how hot, cold, wet, or windy it might be!

Date:

Astronomy

Nov. 22, 2014 Rise Set
Actual Time 7:40 AM CET 5:29 PM CET
Civil Twilight 7:11 AM CET 5:58 PM CET
Nautical Twilight 6:38 AM CET 6:31 PM CET
Astronomical Twilight 6:06 AM CET 7:03 PM CET
Moon 7:21 AM CET (11/22) 5:47 PM CET (11/22)
Length of Visible Light 10h 46m
Length of Day
9h 48m
Waning Crescent, 0% of the Moon is Illuminated
Nov 22
Waning Crescent
Nov 22
New
Nov 29
First Quarter
Dec 6
Full
Dec 14
Last Quarter

Hourly Weather History & Observations

Time (CET) Temp. Dew Point Humidity Pressure Visibility Wind Dir Wind Speed Gust Speed Precip Events Conditions
12:00 AM 60 °F 59 °F 96% 30.08 in - North 2.3 mph - -  
12:00 AM 60.8 °F 59.0 °F 94% 30.06 in 5.0 mi Calm Calm - N/A   Unknown
12:30 AM 60.8 °F 59.0 °F 94% 30.06 in 5.0 mi Variable 1.2 mph - N/A   Unknown
1:00 AM 60 °F 59 °F 94% 30.07 in 5 mi Calm Calm - -   Mist
1:00 AM 60.8 °F 59.0 °F 94% 30.06 in 5.6 mi Calm Calm - N/A   Unknown
1:30 AM 60.8 °F 59.0 °F 94% 30.06 in 5.6 mi Calm Calm - N/A   Unknown
2:00 AM 60 °F 58 °F 91% 30.06 in - Calm Calm - -  
2:00 AM 59.0 °F 59.0 °F 100% 30.06 in - Calm Calm - N/A   Clear
2:30 AM 59.0 °F 59.0 °F 100% 30.06 in - Calm Calm - N/A   Clear
3:00 AM 59 °F 58 °F 94% 30.06 in - North 1.2 mph - -  
3:00 AM 59.0 °F 59.0 °F 100% 30.06 in - Variable 2.3 mph - N/A   Clear
3:30 AM 59.0 °F 57.2 °F 94% 30.04 in - Variable 1.2 mph - N/A   Clear
4:00 AM 57 °F 55 °F 92% 30.05 in 7 mi NNW 3.5 mph - -   Scattered Clouds
4:00 AM 57.2 °F 55.4 °F 94% 30.04 in - Variable 1.2 mph - N/A   Clear
4:30 AM 57.2 °F 53.6 °F 88% 30.04 in - North 1.2 mph - N/A   Clear
5:00 AM 57 °F 52 °F 77% 30.04 in - NNW 2.3 mph - -  
5:00 AM 57.2 °F 51.8 °F 82% 30.04 in - North 1.2 mph - N/A   Clear
5:30 AM 55.4 °F 51.8 °F 88% 30.04 in - Calm Calm - N/A   Clear
6:00 AM 54 °F 52 °F 91% 30.04 in - NE 2.3 mph - -  
6:00 AM 55.4 °F 51.8 °F 88% 30.04 in - Calm Calm - N/A   Clear
6:30 AM 53.6 °F 53.6 °F 100% 30.04 in - Calm Calm - N/A   Clear
7:00 AM 53 °F 52 °F 95% 30.04 in 9 mi Calm Calm - -   Partly Cloudy
7:00 AM 53.6 °F 51.8 °F 94% 30.04 in - Variable 1.2 mph - N/A   Clear
7:30 AM 53.6 °F 51.8 °F 94% 30.04 in - ENE 1.2 mph - N/A   Clear
8:00 AM 53 °F 52 °F 93% 30.05 in - Calm Calm - -  
8:00 AM 53.6 °F 51.8 °F 94% 30.04 in - Calm Calm - N/A   Clear
8:30 AM 53.6 °F 53.6 °F 100% 30.04 in 6.2 mi ENE 2.3 mph - N/A   Partly Cloudy
9:00 AM 55 °F 53 °F 92% 30.06 in - WNW 1.2 mph - -  
9:00 AM 55.4 °F 53.6 °F 94% 30.04 in 6.2 mi Calm Calm - N/A   Partly Cloudy
9:30 AM 57.2 °F 55.4 °F 94% 30.06 in 6.2 mi Calm Calm - N/A   Partly Cloudy
10:00 AM 60 °F 56 °F 81% 30.10 in 12 mi NNE 2.3 mph - -   Overcast
10:00 AM 60.8 °F 57.2 °F 88% 30.09 in 6.2 mi Calm Calm - N/A   Partly Cloudy
10:30 AM 60.8 °F 57.2 °F 88% 30.09 in 6.2 mi Variable 1.2 mph - N/A   Partly Cloudy
11:00 AM 62 °F 56 °F 77% 30.10 in - SSE 9.2 mph - -  
11:00 AM 62.6 °F 57.2 °F 82% 30.09 in 6.2 mi South 10.4 mph - N/A   Partly Cloudy
11:30 AM 64.4 °F 59.0 °F 83% 30.06 in 6.2 mi NE 1.2 mph - N/A   Partly Cloudy
12:00 PM 66 °F 59 °F 72% 30.09 in - North 3.5 mph - -  
12:00 PM 66.2 °F 59.0 °F 78% 30.06 in 6.2 mi NW 5.8 mph - N/A   Partly Cloudy
12:30 PM 68.0 °F 60.8 °F 78% 30.04 in 6.2 mi NNE 3.5 mph - N/A   Partly Cloudy
1:00 PM 70 °F 61 °F 66% 30.03 in 12 mi ENE 1.2 mph - -   Overcast
1:00 PM 69.8 °F 62.6 °F 78% 30.04 in - Variable 2.3 mph - N/A   Clear
1:30 PM 73.4 °F 62.6 °F 69% 30.01 in - Variable 1.2 mph - N/A   Clear
2:00 PM 71.6 °F 62.6 °F 73% 30.04 in - Variable 1.2 mph - N/A   Clear
3:00 PM 73 °F 62 °F 61% 30.04 in - SSE 4.6 mph - -  
4:00 PM 72 °F 60 °F 56% 30.04 in 12 mi South 2.3 mph - -   Overcast
4:00 PM 71.6 °F 62.6 °F 73% 30.04 in - Variable 1.2 mph - N/A   Clear
4:30 PM 71.6 °F 62.6 °F 73% 30.04 in - Calm Calm - N/A   Clear
5:00 PM 68 °F 62 °F 74% 30.04 in - NNW 4.6 mph - -  
5:00 PM 68.0 °F 62.6 °F 83% 30.04 in - Variable 2.3 mph - N/A   Clear
5:30 PM 66.2 °F 60.8 °F 83% 30.04 in - Calm Calm - N/A   Clear
6:00 PM 65 °F 60 °F 78% 30.04 in - Calm Calm - -  
6:00 PM 66.2 °F 60.8 °F 83% 30.04 in - Calm Calm - N/A   Clear
6:30 PM 64.4 °F 60.8 °F 88% 30.04 in - Variable 2.3 mph - N/A   Clear
7:00 PM 62 °F 59 °F 86% 30.04 in 12 mi NE 2.3 mph - -   Overcast
7:00 PM 62.6 °F 59.0 °F 88% 30.04 in - ENE 3.5 mph - N/A   Clear
7:30 PM 60.8 °F 59.0 °F 94% 30.04 in - North 1.2 mph - N/A   Clear
8:00 PM 60 °F 57 °F 85% 30.04 in - Calm Calm - -  
8:00 PM 60.8 °F 57.2 °F 88% 30.04 in - NNE 1.2 mph - N/A   Clear
8:30 PM 59.0 °F 55.4 °F 88% 30.04 in - Variable 2.3 mph - N/A   Clear
9:00 PM 58 °F 53 °F 80% 30.05 in - Calm Calm - -  
9:00 PM 59.0 °F 53.6 °F 82% 30.04 in - Variable 2.3 mph - N/A   Clear
9:30 PM 59.0 °F 53.6 °F 82% 30.04 in - NNE 3.5 mph - N/A   Clear
10:00 PM 58 °F 52 °F 73% 30.07 in 9 mi South 2.3 mph - -   Overcast
10:00 PM 57.2 °F 53.6 °F 88% 30.06 in - Variable 2.3 mph - N/A   Clear
10:30 PM 57.2 °F 51.8 °F 82% 30.06 in - Variable 1.2 mph - N/A   Clear
11:00 PM 56 °F 51 °F 80% 30.07 in - Calm Calm - -  
11:00 PM 57.2 °F 51.8 °F 82% 30.06 in - NNE 1.2 mph - N/A   Clear
11:30 PM 57.2 °F 51.8 °F 82% 30.06 in - NE 1.2 mph - N/A   Clear